Time,TemperatureF,DewpointF,PressureIn,WindDirection,WindDirectionDegrees,WindSpeedMPH,WindSpeedGustMPH,Humidity,HourlyPrecipIn,Conditions,Clouds,dailyrainin,SoftwareType,DateUTC
2013-10-14 00:12:00,57.5,56.0,30.26,East,90,0.0,3.0,96,0.00,,,0.00,weatherlink.com 1.10,2013-10-14 04:12:00,
2013-10-14 00:27:00,57.6,57.0,30.26,East,96,0.0,2.0,96,0.00,,,0.00,weatherlink.com 1.10,2013-10-14 04:27:00,
2013-10-14 00:42:00,57.6,57.0,30.26,ENE,72,0.0,1.0,96,0.00,,,0.00,weatherlink.com 1.10,2013-10-14 04:42:00,
2013-10-14 00:57:00,57.5,56.0,30.26,ENE,60,1.0,1.0,96,0.00,,,0.00,weatherlink.com 1.10,2013-10-14 04:57:00,
2013-10-14 01:12:00,57.4,56.0,30.26,ENE,74,0.0,1.0,95,0.00,,,0.00,weatherlink.com 1.10,2013-10-14 05:12:00,
2013-10-14 01:27:00,56.8,55.0,30.27,ENE,74,0.0,0.0,95,0.00,,,0.00,weatherlink.com 1.10,2013-10-14 05:27:00,
2013-10-14 01:42:00,56.1,55.0,30.27,ENE,74,0.0,0.0,96,0.00,,,0.00,weatherlink.com 1.10,2013-10-14 05:42:00,
2013-10-14 01:57:00,55.5,54.0,30.27,ENE,73,0.0,0.0,96,0.00,,,0.00,weatherlink.com 1.10,2013-10-14 05:57:00,
2013-10-14 02:12:00,55.0,54.0,30.27,ENE,74,0.0,0.0,96,0.00,,,0.00,weatherlink.com 1.10,2013-10-14 06:12:00,
2013-10-14 02:27:00,55.0,54.0,30.27,ENE,74,0.0,0.0,96,0.00,,,0.00,weatherlink.com 1.10,2013-10-14 06:27:00,
2013-10-14 02:42:00,54.9,54.0,30.27,ENE,74,0.0,0.0,96,0.00,,,0.00,weatherlink.com 1.10,2013-10-14 06:42:00,
2013-10-14 02:57:00,55.2,54.0,30.26,ENE,74,0.0,0.0,97,0.00,,,0.00,weatherlink.com 1.10,2013-10-14 06:57:00,
2013-10-14 03:12:00,55.2,54.0,30.26,ENE,74,0.0,0.0,96,0.00,,,0.00,weatherlink.com 1.10,2013-10-14 07:12:00,
2013-10-14 03:27:00,54.9,54.0,30.26,ENE,73,0.0,0.0,96,0.00,,,0.00,weatherlink.com 1.10,2013-10-14 07:27:00,
2013-10-14 03:42:00,54.5,53.0,30.27,ENE,74,0.0,0.0,96,0.00,,,0.00,weatherlink.com 1.10,2013-10-14 07:42:00,
2013-10-14 03:57:00,54.5,54.0,30.26,ENE,74,0.0,0.0,97,0.00,,,0.00,weatherlink.com 1.10,2013-10-14 07:57:00,
2013-10-14 04:12:00,54.7,54.0,30.26,ENE,73,0.0,0.0,97,0.00,,,0.00,weatherlink.com 1.10,2013-10-14 08:12:00,
2013-10-14 04:27:00,55.0,54.0,30.27,ENE,74,0.0,0.0,97,0.00,,,0.00,weatherlink.com 1.10,2013-10-14 08:27:00,
2013-10-14 04:42:00,55.2,54.0,30.27,ENE,74,0.0,0.0,97,0.00,,,0.00,weatherlink.com 1.10,2013-10-14 08:42:00,
2013-10-14 04:57:00,55.5,55.0,30.27,ENE,73,0.0,0.0,97,0.00,,,0.00,weatherlink.com 1.10,2013-10-14 08:57:00,
2013-10-14 05:12:00,55.8,55.0,30.26,ENE,73,0.0,0.0,97,0.00,,,0.00,weatherlink.com 1.10,2013-10-14 09:12:00,
2013-10-14 05:27:00,55.9,55.0,30.26,ENE,74,0.0,0.0,97,0.00,,,0.00,weatherlink.com 1.10,2013-10-14 09:27:00,
2013-10-14 05:42:00,56.0,55.0,30.26,ENE,73,0.0,0.0,97,0.00,,,0.00,weatherlink.com 1.10,2013-10-14 09:42:00,
2013-10-14 05:57:00,56.2,55.0,30.26,ENE,74,0.0,0.0,97,0.00,,,0.00,weatherlink.com 1.10,2013-10-14 09:57:00,
2013-10-14 06:12:00,56.3,56.0,30.27,ENE,73,0.0,0.0,97,0.00,,,0.00,weatherlink.com 1.10,2013-10-14 10:12:00,
2013-10-14 06:27:00,56.4,56.0,30.27,ENE,74,0.0,0.0,97,0.00,,,0.00,weatherlink.com 1.10,2013-10-14 10:27:00,
2013-10-14 06:42:00,56.5,56.0,30.27,ENE,73,0.0,0.0,97,0.00,,,0.00,weatherlink.com 1.10,2013-10-14 10:42:00,
2013-10-14 06:57:00,56.5,56.0,30.27,ENE,74,0.0,0.0,97,0.00,,,0.00,weatherlink.com 1.10,2013-10-14 10:57:00,
2013-10-14 07:12:00,56.6,56.0,30.27,ENE,74,0.0,0.0,97,0.00,,,0.00,weatherlink.com 1.10,2013-10-14 11:12:00,
2013-10-14 07:27:00,56.5,56.0,30.27,ENE,74,0.0,1.0,97,0.00,,,0.00,weatherlink.com 1.10,2013-10-14 11:27:00,
2013-10-14 07:42:00,56.4,56.0,30.28,ENE,73,0.0,0.0,97,0.00,,,0.00,weatherlink.com 1.10,2013-10-14 11:42:00,
2013-10-14 07:57:00,56.5,56.0,30.28,West,276,0.0,1.0,97,0.00,,,0.00,weatherlink.com 1.10,2013-10-14 11:57:00,
2013-10-14 08:12:00,56.6,56.0,30.28,West,277,0.0,0.0,97,0.00,,,0.00,weatherlink.com 1.10,2013-10-14 12:12:00,
2013-10-14 08:27:00,56.8,56.0,30.29,West,276,0.0,0.0,97,0.00,,,0.00,weatherlink.com 1.10,2013-10-14 12:27:00,
2013-10-14 08:42:00,57.0,56.0,30.29,West,277,0.0,0.0,97,0.00,,,0.00,weatherlink.com 1.10,2013-10-14 12:42:00,
2013-10-14 08:57:00,57.3,57.0,30.30,West,277,0.0,0.0,97,0.01,,,0.01,weatherlink.com 1.10,2013-10-14 12:57:00,
2013-10-14 09:13:00,57.6,57.0,30.30,West,277,0.0,0.0,97,0.01,,,0.01,weatherlink.com 1.10,2013-10-14 13:13:00,
2013-10-14 09:28:00,57.9,57.0,30.30,West,277,0.0,0.0,97,0.01,,,0.01,weatherlink.com 1.10,2013-10-14 13:28:00,
2013-10-14 09:43:00,58.2,57.0,30.30,NNW,345,0.0,1.0,97,0.01,,,0.01,weatherlink.com 1.10,2013-10-14 13:43:00,
2013-10-14 09:58:00,58.4,58.0,30.30,NNW,346,0.0,1.0,97,0.00,,,0.01,weatherlink.com 1.10,2013-10-14 13:58:00,
2013-10-14 10:13:00,58.5,57.0,30.30,NNE,16,0.0,1.0,96,0.00,,,0.01,weatherlink.com 1.10,2013-10-14 14:13:00,
2013-10-14 10:28:00,58.7,58.0,30.30,NE,44,0.0,0.0,96,0.00,,,0.01,weatherlink.com 1.10,2013-10-14 14:28:00,
2013-10-14 10:43:00,59.1,58.0,30.30,NNE,22,1.0,2.0,96,0.00,,,0.01,weatherlink.com 1.10,2013-10-14 14:43:00,
2013-10-14 10:59:00,59.2,58.0,30.30,NNE,20,0.0,1.0,95,0.00,,,0.01,weatherlink.com 1.10,2013-10-14 14:59:00,
2013-10-14 11:13:00,59.6,58.0,30.30,NNE,20,0.0,0.0,95,0.00,,,0.01,weatherlink.com 1.10,2013-10-14 15:13:00,
2013-10-14 11:28:00,59.8,58.0,30.30,West,281,0.0,2.0,94,0.00,,,0.01,weatherlink.com 1.10,2013-10-14 15:28:00,
2013-10-14 11:43:00,59.9,58.0,30.30,West,278,0.0,2.0,93,0.00,,,0.01,weatherlink.com 1.10,2013-10-14 15:43:00,
2013-10-14 11:58:00,59.9,58.0,30.30,North,5,0.0,2.0,93,0.00,,,0.01,weatherlink.com 1.10,2013-10-14 15:58:00,
2013-10-14 12:13:00,60.2,58.0,30.29,NNE,22,0.0,1.0,93,0.00,,,0.01,weatherlink.com 1.10,2013-10-14 16:13:00,
2013-10-14 12:28:00,60.5,59.0,30.29,NNE,23,0.0,2.0,93,0.00,,,0.01,weatherlink.com 1.10,2013-10-14 16:28:00,
2013-10-14 12:43:00,60.6,58.0,30.29,NNE,13,0.0,1.0,92,0.00,,,0.01,weatherlink.com 1.10,2013-10-14 16:43:00,
2013-10-14 12:58:00,60.8,59.0,30.28,SSE,150,0.0,2.0,92,0.00,,,0.01,weatherlink.com 1.10,2013-10-14 16:58:00,
2013-10-14 13:13:00,61.2,59.0,30.27,NE,34,1.0,3.0,91,0.00,,,0.01,weatherlink.com 1.10,2013-10-14 17:13:00,
2013-10-14 13:28:00,61.1,58.0,30.27,SE,124,0.0,1.0,90,0.00,,,0.01,weatherlink.com 1.10,2013-10-14 17:28:00,
2013-10-14 13:43:00,61.4,59.0,30.26,NE,54,0.0,1.0,90,0.00,,,0.01,weatherlink.com 1.10,2013-10-14 17:43:00,
2013-10-14 13:58:00,62.1,59.0,30.25,NE,53,0.0,1.0,89,0.00,,,0.01,weatherlink.com 1.10,2013-10-14 17:58:00,
2013-10-14 14:13:00,62.3,59.0,30.25,NE,49,0.0,1.0,88,0.00,,,0.01,weatherlink.com 1.10,2013-10-14 18:13:00,
2013-10-14 14:28:00,62.2,59.0,30.25,West,263,0.0,2.0,88,0.00,,,0.01,weatherlink.com 1.10,2013-10-14 18:28:00,
2013-10-14 14:43:00,62.1,59.0,30.25,NNE,15,0.0,1.0,88,0.00,,,0.01,weatherlink.com 1.10,2013-10-14 18:43:00,
2013-10-14 14:58:00,61.7,59.0,30.25,North,8,0.0,2.0,89,0.00,,,0.01,weatherlink.com 1.10,2013-10-14 18:58:00,
2013-10-14 15:13:00,61.3,58.0,30.25,West,281,0.0,1.0,89,0.00,,,0.01,weatherlink.com 1.10,2013-10-14 19:13:00,
2013-10-14 15:28:00,61.3,58.0,30.24,NNE,12,0.0,2.0,90,0.00,,,0.01,weatherlink.com 1.10,2013-10-14 19:28:00,
2013-10-14 15:43:00,61.4,58.0,30.24,WNW,285,0.0,2.0,89,0.00,,,0.01,weatherlink.com 1.10,2013-10-14 19:43:00,
2013-10-14 15:58:00,61.3,58.0,30.24,WNW,298,0.0,2.0,89,0.00,,,0.01,weatherlink.com 1.10,2013-10-14 19:58:00,
2013-10-14 16:13:00,61.2,58.0,30.24,WNW,295,0.0,2.0,89,0.00,,,0.01,weatherlink.com 1.10,2013-10-14 20:13:00,
2013-10-14 16:28:00,61.1,58.0,30.24,West,276,0.0,2.0,89,0.00,,,0.01,weatherlink.com 1.10,2013-10-14 20:28:00,
2013-10-14 16:43:00,60.9,58.0,30.24,NNE,22,0.0,2.0,89,0.00,,,0.01,weatherlink.com 1.10,2013-10-14 20:43:00,
2013-10-14 16:58:00,60.8,58.0,30.24,WNW,287,0.0,1.0,90,0.00,,,0.01,weatherlink.com 1.10,2013-10-14 20:58:00,
2013-10-14 17:13:00,60.8,58.0,30.24,North,1,0.0,1.0,90,0.00,,,0.01,weatherlink.com 1.10,2013-10-14 21:13:00,
2013-10-14 17:28:00,60.7,58.0,30.24,North,359,0.0,1.0,90,0.00,,,0.01,weatherlink.com 1.10,2013-10-14 21:28:00,
2013-10-14 17:43:00,60.6,58.0,30.24,North,9,1.0,2.0,90,0.00,,,0.01,weatherlink.com 1.10,2013-10-14 21:43:00,
2013-10-14 17:58:00,60.6,58.0,30.24,NNE,27,1.0,1.0,90,0.00,,,0.01,weatherlink.com 1.10,2013-10-14 21:58:00,
2013-10-14 18:13:00,60.5,58.0,30.24,NNE,29,0.0,1.0,90,0.00,,,0.01,weatherlink.com 1.10,2013-10-14 22:13:00,
2013-10-14 18:28:00,60.5,58.0,30.24,NNE,27,0.0,1.0,91,0.00,,,0.01,weatherlink.com 1.10,2013-10-14 22:28:00,
2013-10-14 18:43:00,60.3,58.0,30.24,NNE,27,0.0,1.0,91,0.00,,,0.01,weatherlink.com 1.10,2013-10-14 22:43:00,
2013-10-14 18:58:00,60.2,58.0,30.25,NNE,27,0.0,0.0,91,0.00,,,0.01,weatherlink.com 1.10,2013-10-14 22:58:00,
2013-10-14 19:13:00,60.1,58.0,30.25,NNE,20,0.0,1.0,91,0.00,,,0.01,weatherlink.com 1.10,2013-10-14 23:13:00,
2013-10-14 19:28:00,60.1,58.0,30.25,ESE,121,0.0,1.0,91,0.00,,,0.01,weatherlink.com 1.10,2013-10-14 23:28:00,
2013-10-14 19:43:00,59.9,58.0,30.24,North,8,0.0,2.0,92,0.00,,,0.01,weatherlink.com 1.10,2013-10-14 23:43:00,
2013-10-14 19:58:00,59.9,58.0,30.25,North,6,0.0,1.0,92,0.00,,,0.01,weatherlink.com 1.10,2013-10-14 23:58:00,
2013-10-14 20:13:00,59.8,58.0,30.25,North,5,0.0,1.0,92,0.00,,,0.01,weatherlink.com 1.10,2013-10-15 00:13:00,
2013-10-14 20:28:00,59.7,57.0,30.25,North,5,0.0,0.0,92,0.00,,,0.01,weatherlink.com 1.10,2013-10-15 00:28:00,
2013-10-14 20:43:00,59.5,57.0,30.24,North,6,0.0,0.0,92,0.00,,,0.01,weatherlink.com 1.10,2013-10-15 00:43:00,
2013-10-14 20:58:00,59.7,57.0,30.24,East,94,0.0,1.0,92,0.00,,,0.01,weatherlink.com 1.10,2013-10-15 00:58:00,
2013-10-14 21:13:00,59.7,57.0,30.24,ESE,105,0.0,2.0,92,0.00,,,0.01,weatherlink.com 1.10,2013-10-15 01:13:00,
2013-10-14 21:28:00,59.6,57.0,30.25,ENE,67,1.0,1.0,92,0.00,,,0.01,weatherlink.com 1.10,2013-10-15 01:28:00,
2013-10-14 21:43:00,59.6,57.0,30.25,ENE,67,0.0,0.0,92,0.00,,,0.01,weatherlink.com 1.10,2013-10-15 01:43:00,
2013-10-14 21:58:00,59.5,57.0,30.25,ENE,78,0.0,0.0,92,0.00,,,0.01,weatherlink.com 1.10,2013-10-15 01:58:00,
2013-10-14 22:13:00,59.4,57.0,30.25,ENE,78,0.0,0.0,92,0.00,,,0.01,weatherlink.com 1.10,2013-10-15 02:13:00,
2013-10-14 22:28:00,59.4,57.0,30.25,ENE,78,0.0,0.0,92,0.00,,,0.01,weatherlink.com 1.10,2013-10-15 02:28:00,
2013-10-14 22:43:00,59.5,57.0,30.25,ENE,78,0.0,0.0,91,0.00,,,0.01,weatherlink.com 1.10,2013-10-15 02:43:00,
2013-10-14 22:58:00,59.4,57.0,30.25,ENE,78,0.0,0.0,91,0.00,,,0.01,weatherlink.com 1.10,2013-10-15 02:58:00,
2013-10-14 23:13:00,59.4,57.0,30.24,ENE,77,0.0,0.0,91,0.00,,,0.01,weatherlink.com 1.10,2013-10-15 03:13:00,
2013-10-14 23:28:00,59.1,57.0,30.24,ENE,77,0.0,0.0,92,0.00,,,0.01,weatherlink.com 1.10,2013-10-15 03:28:00,
2013-10-14 23:43:00,59.0,57.0,30.25,ENE,78,0.0,0.0,92,0.00,,,0.01,weatherlink.com 1.10,2013-10-15 03:43:00,
2013-10-14 23:58:00,58.9,57.0,30.24,ENE,78,0.0,0.0,92,0.00,,,0.01,weatherlink.com 1.10,2013-10-15 03:58:00,